STARLINK-2156 (47742 NORAD) Tracking and Keplerian Element Data

This shows tracking and keplerian element data for the satellite.

Feedback or suggestion? Click here.




ElementValue
Catalog47742
NameSTARLINK-2156
Epoch Orbit175
Epoch Day170.58334491
Epoch Year2021
RAAN21.4188
Inclination53.0534
Eccentricity0.000153
Argument of Perigee89.9122
Mean Anonmoly60.1894
Mean Motion15.06401847
Decay Rate0.00013414
L11 47742U 21017W 21170.58334491 .00013414 00000-0 91767-3 0 9999
L22 47742 53.0534 21.4188 0001530 89.9122 60.1894 15.06401847 1757

Live tracking and technical data element details for STARLINK-2156 (NORAD 47742). STARLINK-2156 can be tracked NOW for your location showing map with azimuth and elevation plus other details from your city location.

Track the satellite on the map from your city or location and see movement details for azimuth, elevation, latitude, longitude, range, height, and movement on the map or in text.







IsCatalogInMostPopularTable: catalog: 47742, numindb: 44
Update: records affected: 1



GetName: 47742 STARLINK-2156

Hit Count: updated at: Mon, 21 Jun 2021 04:57:39 GMT